Find Starlink 32003

NORAD ID: 60097 Int'l Des: 2024-117 Owner: SPXS Country: US Constellation: starlink operational
LEOCIRCULAR

Current View

Loading 3D Globe...

About Starlink 32003

Starlink 32003 (NORAD 60097) is a starlink constellation satellite (v2 mini) launched Jun 23, 2024 by SPXS of US. It operates in LEO, CIRCULAR orbit with a mass of 730.00 kg.

About Starlink 32003

Description loading...

Upcoming Passes

Passes for default location (London). Set your location on the main map for personalized predictions.

Altitude History

Loading altitude history...

Two-Line Element Set

1 60097U 24117G 26171.33434531 .00007327 00000-0 25972-3 0 9997
2 60097 53.1603 280.2232 0001390 107.0596 253.0557 15.30143725112600
Epoch: Jun 20, 2026 • Age: 17 hours

Current Status

Altitude 494.3 km
Velocity 7.62 km/s
Sub-Earth Point -52.15°S, 111.23°W
Launch Date Jun 23, 2024
Age 1.9 years
Type internet

Technical Details

Classification Payload
Mass 730.00 kg
Dry Mass 700.00 kg
Total Mass 730.00 kg
Length 0.30 m
Diameter 4.10 m
Span 29.00 m
Shape Box + pan
Manufacturer SPXS
Bus Type Starlink V2M
Phase Status In Orbit
Owner/State SPXS/US

Most Searched